User: anonymous   Login
Location: Caltech
(34.1382°N, 118.1253°W)
Time: 13:44:30
(UTC-07:00)
Language:

Sapphire - Orbit

View from above orbital plane
View from above orbital plane
View from above satellite
View from above satellite

Ground track
Ground track

The orbit data is extracted from the following two-line orbital elements,

1 26932U 01043D   14304.47141477  .00000108  00000-0  73770-4 0  7509
2 26932 067.0587 048.1000 0008247 286.5727 073.4468 14.30051337683138
Epoch (UTC): 31 October 2014 11:18:50
Eccentricity: 0.0008247
inclination: 67.0587°
perigee height: 785 km
apogee height: 797 km
right ascension of ascending node: 48.1000°
argument of perigee: 286.5727°
revolutions per day: 14.30051337
mean anomaly at epoch: 73.4468°
orbit number at epoch: 68313

The dashed part of the orbit path shows where the satellite is in the earth's shadow,  

DLR